DW9677 Weather Reports


time (UTC)temp
F
wind
direction
speed
knots
gust
knots
rain 1hr
in
rain 24hr
in
rain mn
in
humidity
%
barometer
mb
20200924074659 56 40 0.0 0.0 0.00 0.04 0.00 89 1010.5
20200924073030 54 40 0.0 0.0 0.00 0.04 0.00 88 1010.3
20200924071542 53 40 0.0 0.0 0.00 0.04 0.00 88 1010.3
20200924070059 52 40 0.0 0.0 0.00 0.04 0.00 88 1010.3
20200924064529 51 40 0.0 0.0 0.00 0.04 0.00 88 1010.2
20200924063024 51 40 0.0 0.0 0.00 0.04 0.00 88 1010.2
20200924061604 50 40 0.0 0.0 0.00 0.04 0.00 87 1010.0
20200924060018 49 40 0.0 0.0 0.00 0.04 0.00 87 1009.9
20200924054515 48 40 0.0 0.0 0.00 0.04 0.00 87 1009.5
20200924053022 47 40 0.0 0.0 0.00 0.04 0.00 86 1009.2
20200924051516 47 40 0.0 0.0 0.00 0.04 0.00 86 1009.2
20200924050011 47 40 0.0 0.0 0.00 0.04 0.00 86 1009.2
20200924044501 47 40 0.0 0.0 0.00 0.04 0.00 86 1009.0
20200924043228 47 40 0.0 0.0 0.00 0.04 0.00 86 1008.9
20200924041703 47 40 0.0 0.0 0.00 0.04 0.00 85 1008.8
20200924040114 47 40 0.0 0.0 0.00 0.04 0.00 85 1008.8
20200924034710 47 39 0.0 0.0 0.00 0.04 0.00 85 1008.8
20200924033243 48 40 0.0 0.0 0.00 0.04 0.00 85 1008.8
20200924031708 48 39 0.0 0.0 0.00 0.04 0.00 85 1008.8
20200924030215 48 40 0.0 0.0 0.00 0.04 0.00 85 1008.9
20200924024833 48 39 0.0 0.0 0.00 0.04 0.00 85 1008.8
20200924023155 49 40 0.0 0.0 0.00 0.04 0.00 85 1008.8
20200924021551 49 40 0.0 0.0 0.00 0.04 0.00 85 1008.9
20200924020130 49 40 0.0 0.0 0.00 0.04 0.00 85 1009.0
20200924014658 50 40 0.0 0.0 0.00 0.04 0.00 85 1008.8
20200924013109 50 40 0.0 0.0 0.00 0.04 0.00 85 1008.8
20200924011654 50 40 0.0 0.0 0.00 0.04 0.00 85 1008.7
20200924004634 51 40 0.0 0.0 0.00 0.04 0.00 85 1008.6
20200924003109 51 40 0.0 0.0 0.00 0.04 0.00 85 1008.6
20200924001549 51 40 0.0 0.0 0.00 0.04 0.00 85 1008.7
20200924000032 51 40 0.0 0.0 0.00 0.04 0.00 85 1008.7
20200923230110 51 40 0.0 0.0 0.00 0.04 0.00 85 1009.0
20200923221521 53 40 0.0 0.0 0.00 0.04 0.00 85 1009.1
20200923220102 53 40 0.0 0.0 0.00 0.04 0.00 84 1009.0
20200923214524 53 40 0.0 0.0 0.00 0.04 0.04 84 1009.2
20200923213056 53 40 0.0 0.0 0.00 0.04 0.04 84 1009.2
20200923174716 58 40 0.0 0.0 0.00 0.04 0.04 85 1008.7
20200923173216 58 40 0.0 0.0 0.00 0.04 0.04 85 1008.7
20200923171844 59 40 0.0 0.0 0.00 0.04 0.04 85 1008.5
20200923170303 60 40 0.0 0.0 0.00 0.04 0.04 85 1008.6
20200923164657 60 40 0.0 0.0 0.00 0.04 0.04 85 1008.3
20200923161738 62 40 0.0 0.0 0.01 0.04 0.04 85 1008.3
20200923153140 64 40 0.0 0.0 0.03 0.03 0.03 85 1008.0
20200923151650 64 40 0.0 0.0 0.03 0.03 0.03 85 1008.0
20200923150127 64 40 0.0 0.0 0.03 0.03 0.03 85 1008.1
20200923144617 66 40 0.0 0.0 0.03 0.03 0.03 83 1008.1
20200923143045 68 40 0.0 0.0 0.00 0.00 0.00 77 1008.1
20200923140112 68 40 0.0 0.0 0.00 0.00 0.00 74 1008.1
20200923134550 67 39 0.0 0.0 0.00 0.00 0.00 78 1008.3
20200923131705 66 39 0.0 0.0 0.00 0.00 0.00 80 1008.6
20200923130140 65 40 0.0 0.0 0.00 0.00 0.00 83 1008.6
20200923124648 64 40 0.0 0.0 0.00 0.00 0.00 82 1008.7
20200923123123 64 40 0.0 0.0 0.00 0.00 0.00 83 1008.8
20200923121609 64 40 0.0 0.0 0.00 0.00 0.00 85 1008.8
20200923120206 63 40 0.0 0.0 0.00 0.00 0.00 85 1008.9
20200923114642 63 40 0.0 0.0 0.00 0.00 0.00 85 1008.9
20200923113110 63 40 0.0 0.9 0.00 0.00 0.00 85 1009.0
20200923111632 63 40 0.0 0.0 0.00 0.00 0.00 85 1009.1
20200923110118 62 40 0.0 0.0 0.00 0.00 0.00 86 1009.1
20200923104642 61 40 0.0 0.0 0.00 0.00 0.00 86 1009.2
20200923103130 61 40 0.0 0.0 0.00 0.00 0.00 85 1009.3
20200923101558 60 39 0.0 0.0 0.00 0.00 0.00 86 1009.4
20200923100145 60 39 0.0 0.0 0.00 0.00 0.00 86 1009.5
20200923094636 60 40 0.0 0.0 0.00 0.00 0.00 86 1009.5
20200923093103 60 39 0.0 0.0 0.00 0.00 0.00 86 1009.6
20200923091553 61 39 0.0 0.0 0.00 0.00 0.00 86 1009.6
20200923090117 61 40 0.0 0.0 0.00 0.00 0.00 86 1009.5
20200923084610 60 40 0.0 0.0 0.00 0.00 0.00 86 1009.5
20200923083021 60 40 0.0 0.0 0.00 0.00 0.00 86 1009.4
20200923081517 60 40 0.0 0.0 0.00 0.00 0.00 86 1009.4